Waarnemingen

Advertentie
Mijn weer
Aurillac, Frankrijk (7549): temperatuur & dauwpunt: 19.05.2019 21:00:00 - 25.05.2019 21:00:00 (CEST)Aurillac, Frankrijk (7549): temperatuur 5cm: 19.05.2019 21:00:00 - 25.05.2019 21:00:00 (CEST)Aurillac, Frankrijk (7549): temperatuur -20cm & temperatuur -100cm: 19.05.2019 21:00:00 - 25.05.2019 21:00:00 (CEST)Aurillac, Frankrijk (7549): windsnelheid & windstoten: 19.05.2019 21:00:00 - 25.05.2019 21:00:00 (CEST)Aurillac, Frankrijk (7549): windrichting: 19.05.2019 21:00:00 - 25.05.2019 21:00:00 (CEST)Aurillac, Frankrijk (7549): luchtdruk: 19.05.2019 21:00:00 - 25.05.2019 21:00:00 (CEST)Aurillac, Frankrijk (7549): zicht: 19.05.2019 21:00:00 - 25.05.2019 21:00:00 (CEST)Aurillac, Frankrijk (7549): Zonneschijnduur: 19.05.2019 21:00:00 - 25.05.2019 21:00:00 (CEST)Aurillac, Frankrijk (7549): neerslag: 19.05.2019 21:00:00 - 25.05.2019 21:00:00 (CEST)
Datum & Tijd tt [°C] td [°C] tt 5cm [°C] tt -20cm [°C] tt -100cm [°C] ff [km/u] ff [kn] fx [km/u] fx [kn] dd ppp [hPa] vv [km] sd [min] rr [mm]
25.05.2019 21:00:00 13,0 11,4 12,7 14,8 12,0 9 5 22 12 NW 1019,0 26 0 0,0
25.05.2019 20:00:00 14,2 11,5 14,2 14,8 11,9 14 7 22 12 WNW 1018,5 34 0 0,0
25.05.2019 19:00:00 14,8 11,6 15,7 14,7 11,9 14 7 25 14 NW 1018,0 38 0 0,0
25.05.2019 18:00:00 15,0 10,8 16,0 14,6 11,9 16 8 29 16 NW 1017,7 24 16 0,0
25.05.2019 17:00:00 16,2 10,5 18,4 14,5 11,9 18 10 27 15 NW 1017,3 39 6 0,0
25.05.2019 16:00:00 15,8 9,7 18,1 14,4 11,9 13 7 28 15 NW 1017,5 37 0 0,0
25.05.2019 15:00:00 15,8 10,8 18,0 14,4 11,9 18 10 34 19 NNW 1017,3 35 12 0,0
25.05.2019 14:00:00 19,0 11,8 18,1 14,4 11,9 21 11 32 18 NW 1016,4 20 34 0,0
25.05.2019 13:00:00 17,4 10,7 19,1 14,3 11,9 16 9 31 17 NW 1017,1 20 36 0,0
25.05.2019 12:00:00 17,1 10,9 19,2 14,3 11,9 17 9 28 15 NW 1017,3 20 29 0,0
25.05.2019 11:00:00 16,1 11,7 20,1 14,3 11,9 13 7 20 11 WNW 1017,6 19 52 0,0
25.05.2019 10:00:00 14,3 11,8 14,6 14,4 11,9 3 2 15 8 W 1017,7 19 41 0,0
25.05.2019 09:00:00 12,9 12,0 13,0 14,4 11,9 7 4 14 7 WNW 1017,9 19 48 0,0
25.05.2019 08:00:00 11,6 11,4 11,5 14,4 11,9 8 5 11 6 WNW 1017,8 12 29 0,0
25.05.2019 07:00:00 11,1 10,9 11,0 14,5 11,9 9 5 14 8 NW 1017,6 7 0 0,0
25.05.2019 06:00:00 11,3 11,1 11,3 14,6 11,9 9 5 16 9 NW 1017,3 4,3 0 0,0
25.05.2019 05:00:00 11,5 11,3 11,5 14,6 11,9 9 5 13 7 WNW 1017,0 2,0 0 0,0
25.05.2019 04:00:00 11,7 11,5 11,8 14,6 11,9 8 4 13 7 WNW 1017,0 0,7 0 0,0
25.05.2019 03:00:00 11,6 11,4 11,8 14,6 11,8 10 5 17 9 WNW 1017,1 0,2 0 0,2
25.05.2019 02:00:00 11,7 11,4 11,8 14,7 11,9 10 5 14 8 WNW 1017,4 1,7 0 1,0
25.05.2019 01:00:00 11,9 11,6 11,8 14,7 11,9 5 3 12 6 WNW 1017,8 1,9 0 0,8
25.05.2019 00:00:00 11,8 11,5 11,8 14,7 11,8 10 5 14 7 NW 1017,8 2,5 0 0,9
24.05.2019 23:00:00 11,7 11,1 11,7 14,8 11,8 6 3 9 5 NW 1017,9 3,0 0 0,8
24.05.2019 22:00:00 11,8 11,0 11,5 14,8 11,8 3 2 5 3 W 1017,4 7 0 0,4
24.05.2019 21:00:00 11,8 10,9 11,7 14,8 11,8 4 2 6 4 WZW 1016,9 6 0 0,8
24.05.2019 20:00:00 12,0 10,9 11,7 14,7 11,8 3 1 12 7 WZW 1016,5 8 0 0,6
24.05.2019 19:00:00 11,9 10,5 11,7 14,7 11,8 9 5 27 15 NW 1016,2 14 0 1,8
24.05.2019 18:00:00 12,0 10,6 12,0 14,7 11,8 14 8 29 16 NNW 1016,4 10 0 0,4
24.05.2019 17:00:00 13,1 10,6 13,1 14,6 11,8 11 6 21 12 NNO 1015,8 8 0 0,6
24.05.2019 16:00:00 14,2 10,0 15,3 14,6 11,8 11 6 30 16 NNO 1015,6 60 8 0,0
24.05.2019 15:00:00 17,3 11,8 20,5 14,6 11,8 22 12 29 15 WNW 1014,3 19 0 0,0
24.05.2019 14:00:00 17,8 10,9 20,2 14,5 11,8 15 8 24 13 WNW 1014,5 20 0 0,0
24.05.2019 13:00:00 17,5 10,1 19,6 14,6 11,8 13 7 22 12 WNW 1014,8 20 0 0,0
24.05.2019 12:00:00 16,8 10,9 19,3 14,6 11,8 14 7 21 11 W 1015,3 20 1 0,0
24.05.2019 11:00:00 15,4 11,0 16,1 14,6 11,8 10 6 18 10 WNW 1015,7 47 0 0,0
24.05.2019 10:00:00 13,9 10,3 14,7 14,7 11,8 10 5 19 10 WNW 1016,2 43 0 0,0
24.05.2019 09:00:00 13,0 10,4 13,0 14,7 11,8 9 5 14 7 W 1016,3 20 0 0,0
24.05.2019 08:00:00 12,1 10,2 11,5 14,8 11,8 8 4 12 7 WNW 1016,4 20 0 0,0
24.05.2019 07:00:00 11,8 9,4 10,5 14,8 11,8 4 2 6 3 W 1016,4 17 0 0,0
24.05.2019 06:00:00 11,7 9,3 10,3 14,8 11,8 0 0 5 3 N 1016,2 46 0 0,0
24.05.2019 05:00:00 11,4 9,3 9,1 14,8 11,8 3 2 5 3 ZO 1016,3 45 0 0,0
24.05.2019 04:00:00 12,1 9,5 9,4 14,8 11,8 2 1 6 3 ONO 1016,1 40 0 0,0
24.05.2019 03:00:00 12,3 9,1 10,4 14,8 11,8 4 2 5 3 ZO 1016,4 57 0 0,0
24.05.2019 02:00:00 13,3 9,2 11,2 14,8 11,8 2 1 5 3 OZO 1016,4 55 0 0,0
24.05.2019 01:00:00 13,8 9,2 12,3 14,8 11,7 4 2 14 7 WZW 1016,4 58 0 0,0
24.05.2019 00:00:00 14,5 8,9 12,6 14,7 11,8 4 2 9 5 WZW 1016,3 60 0 0,0
23.05.2019 23:00:00 15,6 8,1 11,9 14,6 11,8 3 2 7 4 NNO 1016,1 60 0 0,0
23.05.2019 22:00:00 16,7 7,1 13,5 14,5 11,8 5 3 9 5 NNW 1015,8 60 0 0,0
23.05.2019 21:00:00 17,7 7,1 15,9 14,4 11,8 6 3 20 11 NNW 1015,3 19 0 0,0
23.05.2019 20:00:00 19,2 7,6 18,9 14,2 11,8 9 5 16 9 NW 1014,7 60 5 0,0
23.05.2019 19:00:00 20,3 4,7 20,6 14,1 11,8 13 7 25 14 NW 1014,5 36 51 0,0
23.05.2019 18:00:00 21,5 5,8 23,0 13,9 11,7 13 7 22 12 NW 1014,2 60 51 0,0
23.05.2019 17:00:00 20,9 6,4 23,7 13,8 11,7 14 7 27 15 NW 1014,4 60 56 0,0
23.05.2019 16:00:00 20,8 7,1 24,0 13,6 11,7 13 7 22 12 NNW 1014,6 60 39 0,0
23.05.2019 15:00:00 20,9 6,4 27,4 13,6 11,8 11 6 21 11 NNW 1015,0 18 60 0,0
23.05.2019 14:00:00 20,6 7,6 27,4 13,5 11,8 13 7 22 12 NNW 1015,3 60 60 0,0
23.05.2019 13:00:00 19,9 6,6 25,8 13,5 11,8 6 3 21 11 NNW 1015,9 20 60 0,0
23.05.2019 12:00:00 19,3 6,4 26,0 13,5 11,7 10 5 19 11 NW 1016,5 60 60 0,0
23.05.2019 11:00:00 18,2 5,4 23,5 13,6 11,7 3 2 13 7 WNW 1016,8 59 60 0,0
23.05.2019 10:00:00 16,5 8,2 19,7 13,6 11,7 8 4 16 8 OZO 1017,3 20 60 0,0
23.05.2019 09:00:00 13,8 7,3 12,0 13,7 11,7 6 3 9 5 O 1018,0 37 60 0,0
23.05.2019 08:00:00 9,0 6,3 6,6 13,8 11,7 6 4 9 5 OZO 1019,0 20 60 0,0
23.05.2019 07:00:00 6,8 5,3 3,5 13,8 11,7 6 3 11 6 O 1019,3 27 22 0,0
23.05.2019 06:00:00 6,0 4,5 2,5 13,9 11,7 5 3 8 4 O 1019,7 28 0 0,0
23.05.2019 05:00:00 7,4 5,9 2,9 13,9 11,7 6 3 11 6 O 1019,4 29 0 0,0
23.05.2019 04:00:00 6,8 5,1 3,8 14,0 11,7 9 5 10 5 O 1019,7 36 0 0,0
23.05.2019 03:00:00 8,1 5,6 4,5 14,0 11,7 5 3 9 5 OZO 1019,6 57 0 0,0
23.05.2019 02:00:00 8,0 5,6 4,6 13,9 11,7 4 2 7 4 OZO 1019,9 50 0 0,0
23.05.2019 01:00:00 9,7 6,8 6,0 13,9 11,7 5 3 6 3 O 1019,6 51 0 0,0
23.05.2019 00:00:00 11,9 7,2 6,8 13,9 11,7 3 1 11 6 NNO 1019,1 60 0 0,0
22.05.2019 23:00:00 13,4 7,8 8,9 13,7 11,7 4 2 13 7 O 1018,7 60 0 0,0
22.05.2019 22:00:00 16,1 6,8 12,5 13,6 11,7 7 4 13 7 O 1017,7 60 0 0,0
22.05.2019 21:00:00 18,1 6,6 15,8 13,5 11,7 8 4 16 9 N 1016,7 60 55 0,0
22.05.2019 20:00:00 19,5 5,9 19,9 13,4 11,7 8 5 22 12 N 1016,1 58 45 0,0
22.05.2019 19:00:00 19,0 7,4 19,2 13,2 11,7 10 6 19 11 NNW 1016,2 20 0 0,0
22.05.2019 18:00:00 19,9 6,9 20,4 13,0 11,7 6 4 19 11 WNW 1016,1 60 12 0,0
22.05.2019 17:00:00 20,1 7,1 21,4 12,9 11,7 10 5 23 12 W 1016,2 52 38 0,0
22.05.2019 16:00:00 19,4 5,4 21,5 12,8 11,7 10 5 19 11 NNW 1016,6 60 41 0,0
22.05.2019 15:00:00 19,5 6,6 20,7 12,7 11,7 4 2 17 9 N 1016,9 48 23 0,0
22.05.2019 14:00:00 18,3 8,5 20,6 12,6 11,7 14 7 23 13 WNW 1017,5 55 38 0,0
22.05.2019 13:00:00 18,1 7,8 20,0 12,6 11,7 9 5 18 10 NW 1017,9 20 52 0,0
22.05.2019 12:00:00 17,1 7,7 24,6 12,6 11,7 5 3 10 6 NW 1018,2 19 60 0,0
22.05.2019 11:00:00 15,7 8,7 20,7 12,7 11,7 4 2 10 5 NW 1018,6 48 60 0,0
22.05.2019 10:00:00 13,1 10,8 17,4 12,7 11,7 5 3 9 5 W 1019,3 19 60 0,0
22.05.2019 09:00:00 9,8 9,7 9,5 12,8 11,7 2 1 9 5 O 1020,1 16 57 0,0
22.05.2019 08:00:00 6,1 6,0 4,4 12,9 11,7 2 1 6 4 OZO 1021,1 0,3 60 0,0
22.05.2019 07:00:00 5,1 5,0 1,1 12,9 11,7 0 0 4 2 N 1021,1 0,4 21 0,0
22.05.2019 06:00:00 3,7 3,4 2,0 13,0 11,7 2 1 8 5 Z 1021,1 0,2 0 0,0
22.05.2019 05:00:00 4,5 4,2 2,5 13,0 11,7 5 3 8 4 ZO 1020,8 0,2 0 0,0
22.05.2019 04:00:00 5,3 5,0 3,0 13,0 11,7 4 2 8 4 O 1020,6 0,1 0 0,0
22.05.2019 03:00:00 7,0 6,7 3,7 13,0 11,7 4 2 7 4 ONO 1020,2 0,2 0 0,0
22.05.2019 02:00:00 7,5 6,9 5,1 13,1 11,7 0 0 7 4 N 1020,0 0,1 0 0,0
22.05.2019 01:00:00 8,6 8,0 6,4 13,0 11,7 3 1 8 4 O 1019,7 0,1 0 0,0
22.05.2019 00:00:00 9,8 9,0 8,3 13,0 11,7 4 2 9 5 O 1019,6 4,5 0 0,0
21.05.2019 23:00:00 10,6 9,5 8,1 13,0 11,7 4 2 6 4 O 1019,3 11 0 0,0
21.05.2019 22:00:00 10,9 9,5 7,6 12,9 11,7 3 2 4 2 W 1018,8 14 0 0,0
21.05.2019 21:00:00 12,6 10,0 10,7 12,8 11,7 2 1 10 5 WNW 1017,8 33 22 0,0
21.05.2019 20:00:00 12,7 10,4 11,0 12,7 11,7 3 2 10 5 W 1017,2 41 9 0,4
21.05.2019 19:00:00 12,2 8,8 10,6 12,6 11,7 6 3 24 13 W 1017,6 7 0 2,0
21.05.2019 18:00:00 14,4 10,8 13,1 12,5 11,7 5 3 12 6 Z 1016,3 38 10 0,0
21.05.2019 17:00:00 13,5 10,3 12,7 12,4 11,7 5 3 27 14 NW 1016,7 10 7 1,0
21.05.2019 16:00:00 16,6 10,0 18,4 12,3 11,7 17 9 29 16 NW 1015,5 19 22 0,0
21.05.2019 15:00:00 15,8 9,0 18,6 12,2 11,7 24 13 34 18 NW 1015,9 19 51 0,0
21.05.2019 14:00:00 15,6 9,7 18,8 12,2 11,7 23 12 39 21 NW 1015,9 19 43 0,0
21.05.2019 13:00:00 15,7 8,4 16,0 12,2 11,7 15 8 29 16 N 1015,9 30 36 0,0
21.05.2019 12:00:00 14,1 9,7 16,0 12,2 11,7 17 9 27 14 NW 1016,2 20 35 0,0
21.05.2019 11:00:00 12,9 10,3 14,2 12,2 11,7 16 8 22 12 WNW 1016,5 13 4 0,0
21.05.2019 10:00:00 11,0 9,9 12,8 12,3 11,7 6 4 11 6 W 1016,8 11 0 0,0
21.05.2019 09:00:00 9,4 8,9 9,3 12,3 11,7 6 3 9 5 WNW 1016,9 9 34 0,0
21.05.2019 08:00:00 7,8 7,5 6,8 12,3 11,7 3 2 6 3 NW 1017,1 7 24 0,0
21.05.2019 07:00:00 6,7 6,3 6,2 12,3 11,7 2 1 6 3 ZW 1016,7 1,2 0 0,0
21.05.2019 06:00:00 6,9 6,5 6,0 12,4 11,7 6 4 8 5 NNW 1016,6 0,2 0 0,0
21.05.2019 05:00:00 7,7 7,1 6,5 12,4 11,7 6 4 8 4 WNW 1016,3 5 0 0,0
21.05.2019 04:00:00 7,6 7,0 5,5 12,5 11,7 5 3 7 4 ZW 1016,5 7 0 0,0
21.05.2019 03:00:00 6,9 6,2 4,3 12,5 11,7 0 0 8 4 N 1016,8 2,7 0 0,0
21.05.2019 02:00:00 7,3 6,4 3,9 12,5 11,7 3 2 6 3 WNW 1016,8 7 0 0,0
21.05.2019 01:00:00 8,1 7,0 5,8 12,4 11,7 4 2 7 4 NW 1016,8 11 0 0,0
21.05.2019 00:00:00 8,3 6,9 6,7 12,4 11,7 6 3 7 4 W 1016,5 13 0 0,0
20.05.2019 23:00:00 9,5 7,6 6,4 12,4 11,7 4 2 9 5 NNW 1015,9 26 0 0,0
20.05.2019 22:00:00 10,1 7,7 6,1 12,4 11,7 5 3 13 7 WNW 1014,9 29 0 0,0
20.05.2019 21:00:00 12,6 7,9 11,7 12,3 11,7 8 5 13 7 NW 1013,8 35 28 0,0
20.05.2019 20:00:00 13,0 7,9 13,4 12,2 11,7 7 4 16 9 NW 1013,4 39 0 0,0
20.05.2019 19:00:00 13,6 7,4 14,9 12,2 11,7 10 6 20 11 NNW 1013,0 53 33 0,0
20.05.2019 18:00:00 13,7 7,9 14,4 12,1 11,7 9 5 19 10 N 1012,8 20 12 0,0
20.05.2019 17:00:00 12,2 7,9 14,1 12,1 11,7 11 6 22 12 N 1013,2 49 0 0,0
20.05.2019 16:00:00 12,8 7,9 13,4 12,0 11,7 12 7 22 12 NW 1013,2 40 16 0,0
20.05.2019 15:00:00 11,9 8,4 12,9 12,1 11,7 16 8 24 13 NW 1013,7 20 2 0,0
20.05.2019 14:00:00 11,2 8,4 11,8 12,1 11,7 17 9 24 13 NNW 1013,7 19 0 0,0
20.05.2019 13:00:00 9,7 8,6 9,6 12,1 11,7 13 7 - - NW 1013,9 16 0 0,0
20.05.2019 12:00:00 9,0 8,7 9,5 12,1 11,7 18 10 - - NW 1013,7 9 0 0,0
20.05.2019 11:00:00 8,6 8,5 8,7 12,2 11,7 - - - - - 1013,6 7 0 0,0
20.05.2019 10:00:00 8,2 8,1 8,7 12,2 11,7 - - - - - 1013,5 0,5 0 0,0
20.05.2019 09:00:00 8,3 8,2 8,5 12,2 11,7 - - - - - 1012,7 0,2 0 0,2
20.05.2019 08:00:00 8,3 8,2 8,5 12,2 11,7 - - - - - 1012,2 0,3 0 0,2
20.05.2019 07:00:00 8,4 8,3 8,5 12,2 11,7 - - - - - 1011,9 0,6 0 0,2
20.05.2019 06:00:00 8,4 8,3 8,4 12,3 11,7 - - - - - 1011,4 0,2 0 0,0
20.05.2019 05:00:00 8,4 8,1 8,4 12,3 11,7 - - - - - 1011,3 1,9 0 0,0
20.05.2019 04:00:00 8,5 8,2 8,5 12,3 11,7 - - - - - 1011,3 7 0 0,0
20.05.2019 03:00:00 8,7 8,4 8,7 12,3 11,7 - - - - - 1011,4 5 0 0,0
20.05.2019 02:00:00 8,8 8,5 8,9 12,3 11,7 - - - - - 1011,6 4,7 0 0,2
20.05.2019 01:00:00 8,9 8,6 8,8 12,4 11,7 - - - - - 1011,7 2,8 0 0,4
20.05.2019 00:00:00 8,9 8,3 8,8 12,4 11,7 - - - - - 1011,8 7 0 0,0
19.05.2019 23:00:00 8,8 8,2 8,8 12,4 11,7 - - - - - 1011,7 8 0 0,2
19.05.2019 22:00:00 8,9 8,1 8,8 12,4 11,7 - - - - - 1011,0 7 0 0,0
19.05.2019 21:00:00 9,3 8,1 8,9 12,4 11,7 - - - - - 1010,3 26 0 0,0

tt = temperatuur
td = dauwpunt
tt 5cm = temperatuur 5cm
tt -20cm = temperatuur -20cm
tt -100cm = temperatuur -100cm
ff = windsnelheid
fx = windstoten
dd = windrichting
ppp = luchtdruk
vv = zicht
sd = Zonneschijnduur
rr = neerslag

Weerstations in de omgeving